Location: Schommer Observatory
(40.5200°N, 74.4500°W)
Time: 13:21:40
(UTC-04:00)

Tiangong 2 - Pass Details

Date: 23 March 2019
Orbit: 378 x 389 km, 42.8° (Epoch: 19 April)

Event Time Altitude Azimuth Distance (km) Brightness Sun altitude
Exits shadow 05:55:54 20° 234° (SW) 948 2.5 -12.3°
Maximum altitude 05:56:42 22° 212° (SSW) 885 2.5 -12.1°
Drops below altitude 10° 05:59:14 10° 158° (SSE) 1,396 4.0 -11.7°
Sets 06:01:34 0° 142° (SE) 2,249 5.3 -11.2°
